Showing default

CENTISPACE-2 S9, 68358

Orbit data source: Space-Track

CENTISPACE-2 S9, 68358 is a payload satellite owned by Centispace (CN) in LEO that was launched on Sun, 22 Mar 2026 UTC via a JIELONG-3 launch vehicle from the Yellow Sea Launch Area, China (YSLA). Payload-class satellites include a variety of spacecraft equipped with specific instruments for various scientific and technological missions. These include communications satellites like Starlink; space stations such as the ISS; scientific satellites like the Hubble; Earth observation satellites from companies like Planet Labs, Umbra, and HawkEye 360; GPS; miniature CubeSats for education and research; and military/defense satellites.

Loading next visibility...
Identifier
68358, 2026-060J
Orbit
LEO
Country
Flag of CNCN / PRC
Related business
Manufacturer
HITSAT
Mission
Operational spacecraft
Bus & Motor
WK01H, Unknown motor
Mass
140 kg wet, 140 kg dry
Launch date (UTC)
2026-03-22 (3 months ago)
Launch vehicle
JIELONG-3
Launch site
Yellow Sea Launch Area, China (YSLA)
Object type
Payload
Rocket body
Debris
Shape & HBR
Unknown shape, 1.1 m
Radar Cross Section
Large (>1 m²)

Expand to show TLE details & history
Last TLE update: 22 hours ago

TLE from 22 hours ago
0 CENTISPACE-2 S9
1 68358U 26060J   26170.93010283  .00000518  00000-0  13425-3 0  9998
2 68358  54.9818  26.1487 0013538 305.3819  54.5910 14.63992286 13158
Epoch: 2026-06-19T22:19Z
TLE epoch observation values (Epoch: 2026-06-19T22:19:20.884Z)
Latitude
-0.00002°
Longitude
143.15965°
Altitude
675.846 km
Speed
7.523 km/s
True Right ascension
01h 44m 35s
True Declination
0° 00' 00"
Sunlit
Object was in daylight at epoch
Visualization orbit readout
Latitude
Unknown
Longitude
Unknown
Altitude
Unknown
Speed
Unknown
Apparent Right ascension
Unknown
Apparent Declination
Unknown
Sunlit
N/A
Visualization observer readout
Local Sidereal Time
07:20:15
Azimuth
Unknown
Elevation
Unknown
Doppler factor
Unknown
Orbital elements
Apogee altitude
689.835 km
Perigee altitude
670.723 km
Semi-major axis
7,058.416 km
Eccentricity
0.00135
Inclination
54.9818°
RAAN
26.1487°
Arg. of periapsis
305.3819°
True anomaly
54.71756°
Mean anomaly
54.591°
Eccentric anomaly
54.65427°
Mean motion
3.66001 °/min
Orbital period
98.36 mins
BSTAR
0.00013425
Loading maneuver chart data...
Computing Atmospheric mass density...
Loading historical data...
Loading historical data...
Loading historical data...
Loading historical data...
Loading historical data...
Loading historical data...
Loading historical data...

Documentation

Showing up to 5 results
|